#timestamp,LO_Frequency,Hit,StdDev 
1636045215.0,286047003.8,N
1636045215.9,286047003.8,N
1636045235.7,286047004.0,N
1636045255.6,286047001.9,N
1636045275.4,286047001.8,N
1636045295.3,286047004.1,N
1636045315.1,286047003.7,N
1636045316.0,286047003.7,N
1636045335.8,286047004.0,N
1636045355.7,286047002.5,N
1636045375.5,286047001.8,N
1636045395.4,286047002.1,N
1636045415.2,286047001.0,N
1636045435.0,286046999.9,N
1636045435.9,286046999.9,N
1636045455.8,286047002.1,N
1636045475.6,286047002.2,N
1636045495.4,286047003.9,N
1636045515.3,286047004.4,Y
1636045535.1,286046999.8,P
1636045555.9,286046999.7,N
1636045575.7,286047000.4,N
1636045595.5,286047000.9,N
1636045615.4,286047002.3,N
1636045635.2,286047002.7,N
1636045655.1,286047004.4,Y
1636045656.0,286047004.4,P
1636045675.8,286047000.3,N
1636045695.6,286047000.0,N
1636045715.5,286047000.3,N
1636045735.3,286047002.3,N
1636045755.1,286047002.6,N
1636045775.9,286047002.8,N
1636045795.7,286047000.9,N
1636045815.6,286047001.0,N
1636045835.4,286046998.7,N
1636045855.2,286046998.2,N
1636045875.1,286046998.4,N
1636045876.0,286046998.4,N
1636045895.8,286046998.4,N
1636045915.7,286046998.6,N
1636045935.5,286046998.4,N
1636045955.3,286046998.7,N
1636045975.2,286046998.9,N
1636045995.0,286047000.8,N
1636045995.9,286047000.8,N
1636046015.8,286047001.2,N
1636046035.6,286046998.4,N
1636046055.4,286046998.1,N
1636046075.3,286047000.7,N
1636046095.1,286047000.4,N
1636046115.8,286046998.4,N
1636046135.7,286046998.8,N
1636046155.5,286046998.3,N
1636046175.4,286046998.8,N
1636046195.2,286046998.5,N
1636046215.0,286046998.9,N
1636046215.9,286046998.9,N
1636046235.8,286046998.2,N
1636046255.6,286047000.7,N
1636046275.5,286047000.2,N
1636046295.3,286047000.5,N
1636046315.1,286047000.8,N
1636046335.9,286047000.7,N
1636046355.7,286047000.3,N
1636046375.5,286047000.2,N
1636046395.4,286046999.7,N
1636046415.2,286046999.8,N
1636046435.1,286047000.2,N
1636046436.0,286047000.2,N
1636046455.8,286047000.5,N
1636046475.6,286047000.4,N
1636046495.5,286047000.3,N
1636046515.3,286047000.6,N
1636046535.1,286046998.5,N
1636046555.9,286046998.4,N
1636046575.7,286046998.3,N
1636046595.6,286046998.7,N
1636046615.4,286046998.9,N
1636046635.2,286046999.4,N
1636046655.1,286047000.7,N
1636046656.0,286047000.7,N
1636046675.8,286047000.1,N
1636046695.6,286046999.8,N
1636046715.5,286047000.1,N
1636046735.3,286047002.4,N
1636046755.2,286047000.2,N
1636046775.9,286046998.4,N
1636046795.7,286046998.9,N
1636046815.6,286046998.2,N
1636046835.4,286047000.5,N
1636046855.2,286047001.2,N
1636046875.1,286046998.8,N
1636046876.0,286046998.8,N
1636046895.8,286046998.3,N
1636046915.7,286047000.4,N
1636046935.5,286047001.2,N
1636046955.3,286047000.7,N
1636046975.2,286046998.1,N
1636046995.0,286047000.7,N
1636046995.9,286047000.7,N
1636047015.7,286046998.3,N
1636047035.6,286046998.6,N
1636047055.4,286047000.6,N
1636047075.3,286046998.3,N
1636047095.1,286047001.1,N
1636047096.0,286047001.1,N
1636047115.8,286047001.1,N
1636047135.7,286047000.4,N
1636047155.5,286046999.7,N
1636047175.3,286047000.2,N
1636047195.2,286047002.7,N
1636047215.0,286046999.7,N
1636047215.9,286046999.7,N
1636047235.8,286047001.1,N
1636047255.6,286047000.9,N
1636047275.4,286046998.8,N
1636047295.3,286047001.2,N
1636047315.1,286046998.3,N
1636047335.8,286046998.1,N
1636047355.7,286047000.0,N
1636047375.5,286047001.2,N
1636047395.4,286046998.5,N
1636047415.2,286047001.1,N
1636047435.0,286047001.2,N
1636047435.9,286047001.2,N
1636047455.8,286047000.5,N
1636047475.6,286046998.4,N
1636047495.5,286046998.8,N
1636047515.4,286046999.3,N
1636047535.2,286046998.6,N
1636047555.0,286047000.7,N
1636047555.9,286047000.7,N
1636047575.8,286047001.1,N
1636047595.6,286047000.1,N
1636047615.4,286046998.1,N
1636047635.3,286046998.2,N
1636047655.1,286046998.3,N
1636047675.9,286047000.9,N
1636047695.7,286047000.3,N
1636047715.5,286047000.9,N
1636047735.4,286047000.0,N
1636047755.2,286046998.3,N
1636047775.0,286046998.7,N
1636047775.9,286046998.7,N
1636047795.8,286046998.8,N
1636047815.6,286046998.3,N
1636047835.5,286046998.1,N
1636047855.3,286047000.0,N
1636047875.1,286046998.1,N
1636047895.9,286047001.1,N
1636047915.7,286047001.1,N
1636047935.6,286046998.6,N
1636047955.4,286046998.9,N
1636047975.3,286046999.4,N
1636047995.1,286046998.7,N
1636048015.9,286047001.1,N
1636048035.7,286047000.3,N
1636048055.5,286047000.5,N
1636048075.4,286046999.8,N
1636048095.2,286046998.7,N
1636048115.0,286047000.9,N
1636048115.9,286047000.9,N
1636048135.8,286046999.9,N
1636048155.6,286047001.0,N
1636048175.5,286047001.1,N
1636048195.3,286047000.2,N
1636048215.1,286047000.0,N
1636048235.9,286047000.4,N
1636048255.7,286046998.6,N
1636048275.6,286046998.3,N
1636048295.4,286046998.4,N
1636048315.2,286046998.3,N
1636048335.1,286046998.6,N
1636048336.0,286046998.6,N
1636048355.8,286046996.9,N
1636048375.7,286046997.2,N
1636048395.5,286046999.6,N
1636048415.3,286046999.2,N
1636048435.2,286046996.6,N
1636048455.0,286046996.7,N
1636048455.9,286046996.7,N
1636048475.8,286046995.1,Y
1636048495.6,286046996.6,P
1636048515.4,286046999.1,N
1636048535.3,286046999.3,N
1636048555.1,286046996.5,Y
1636048575.9,286047000.9,P
1636048595.7,286046998.2,N
1636048615.5,286046998.3,N
1636048635.4,286046999.4,N
1636048655.2,286046996.8,Y
1636048675.1,286046999.5,P
1636048676.0,286046999.5,N
1636048695.8,286046996.6,P
1636048715.6,286046996.7,N
1636048735.5,286046999.4,N
1636048755.3,286046999.5,N
1636048775.1,286046999.5,N
1636048795.9,286046996.5,N
